Tracking 19847 objects as of 16-Sep-2019
HD Live streaming from Space Station
objects crossing your sky now

FENGYUN 1C DEB

Track FENGYUN 1C DEB now!
10-day predictions


NORAD ID: 32343
Int'l Code: 1999-025CYL
Perigee: 731.5 km
Apogee: 960.6 km
Inclination: 98.6 °
Period: 101.7 minutes
Semi major axis: 7217 km
RCS: 0.0118 m2 (small)
Launch date: May 10, 1999
Source: People's Republic of China (PRC)
Launch site: Taiyaun Space Center, China (TSC)

Note: This is SATELLITE DEBRIS
aabbcc
Your satellite tracking list
Your tracking list is empty




NASA's NSSDC Master Catalog

Two Line Element Set (TLE):
1 32343U 99025CYL 19257.03261573  .00000091  00000-0  60035-4 0  9999
2 32343  98.6486 288.5870 0158733 217.0395 141.9739 14.16002289632929
Source of the keplerian elements: AFSPC